When you browse on this site, cookies collect data to enhance your experience and personalize the content and advertising you see.
Visit our Privacy Policy to learn more. By continuing to use the site, you agree to this use of cookies and data.
  • In Czech Republic
  • List of Countries
  • For 7 days
  • Water Temperature
  • Satellite Maps
  • Weather Map
  • Weather Widgets
  • user-avatar
    Login

    Hourly Weather Changsha

    Today, 22 January, Tuesday

    Time Temperature Precipitation Wind Pressure Humidity
    00:00 +5°C° 0 mm 0 mps 768 mmHg 52%
    01:00 +5°C° 0 mm 0 mps 768 mmHg 53%
    02:00 +4°C° 0 mm 0 mps 768 mmHg 54%
    03:00 +4°C° 0 mm 0 mps 768 mmHg 54%
    04:00 +4°C° 0 mm 0 mps 768 mmHg 55%
    05:00 +4°C° 0 mm 0 mps 767 mmHg 55%
    06:00 +4°C° 0 mm 0 mps 768 mmHg 56%
    07:00 +4°C° 0 mm 0 mps 768 mmHg 56%
    08:00 +3°C° 0 mm 0 mps 768 mmHg 57%
    09:00 +6°C° 0 mm 1 mps 768 mmHg 51%
    10:00 +8°C° 0 mm 1 mps 768 mmHg 45%
    11:00 +10°C° 0 mm 1 mps 768 mmHg 39%
    12:00 +12°C° 0 mm 1 mps 767 mmHg 37%
    13:00 +12°C° 0 mm 0 mps 767 mmHg 34%
    14:00 +13°C° 0 mm 0 mps 766 mmHg 31%
    15:00 +13°C° 0 mm 0 mps 766 mmHg 32%
    16:00 +13°C° 0 mm 0 mps 765 mmHg 32%
    17:00 +13°C° 0 mm 0 mps 765 mmHg 33%
    18:00 +12°C° 0 mm 0 mps 765 mmHg 36%
    19:00 +10°C° 0 mm 0 mps 765 mmHg 39%
    20:00 +9°C° 0 mm 0 mps 765 mmHg 43%
    21:00 +9°C° 0 mm 0 mps 765 mmHg 44%
    22:00 +8°C° 0 mm 0 mps 765 mmHg 45%
    23:00 +8°C° 0 mm 0 mps 765 mmHg 47%

    Tomorrow, 23 January, Wednesday

    Time Temperature Precipitation Wind Pressure Humidity
    00:00 +8°C° 0 mm 0 mps 765 mmHg 48%
    01:00 +7°C° 0 mm 0 mps 765 mmHg 50%
    02:00 +8°C° 0 mm 1 mps 765 mmHg 51%
    03:00 +7°C° 0 mm 1 mps 765 mmHg 53%
    04:00 +7°C° 0 mm 1 mps 764 mmHg 55%
    05:00 +6°C° 0 mm 1 mps 764 mmHg 57%
    06:00 +6°C° 0 mm 1 mps 764 mmHg 59%
    07:00 +6°C° 0 mm 1 mps 765 mmHg 61%
    08:00 +6°C° 0 mm 1 mps 765 mmHg 63%
    09:00 +8°C° 0 mm 1 mps 765 mmHg 57%
    10:00 +10°C° 0 mm 1 mps 765 mmHg 51%
    11:00 +12°C° 0 mm 1 mps 766 mmHg 45%
    12:00 +14°C° 0 mm 1 mps 765 mmHg 41%
    13:00 +15°C° 0 mm 1 mps 764 mmHg 37%
    14:00 +16°C° 0 mm 1 mps 763 mmHg 33%
    15:00 +16°C° 0 mm 1 mps 763 mmHg 35%
    16:00 +16°C° 0 mm 1 mps 763 mmHg 36%
    17:00 +16°C° 0 mm 1 mps 763 mmHg 38%
    18:00 +15°C° 0 mm 1 mps 763 mmHg 41%
    19:00 +14°C° 0 mm 1 mps 763 mmHg 45%
    20:00 +12°C° 0 mm 1 mps 763 mmHg 49%
    21:00 +12°C° 0 mm 1 mps 763 mmHg 52%
    22:00 +11°C° 0 mm 1 mps 764 mmHg 55%
    23:00 +11°C° 0 mm 1 mps 764 mmHg 58%

    Day after tomorrow, 24 January, Thursday

    Time Temperature Precipitation Wind Pressure Humidity
    00:00 +10°C° 0 mm 1 mps 764 mmHg 60%
    01:00 +10°C° 0 mm 1 mps 763 mmHg 61%
    02:00 +9°C° 0 mm 1 mps 763 mmHg 63%
    03:00 +9°C° 0 mm 1 mps 763 mmHg 63%
    04:00 +9°C° 0 mm 1 mps 763 mmHg 64%
    05:00 +8°C° 0 mm 1 mps 762 mmHg 65%
    06:00 +8°C° 0 mm 1 mps 763 mmHg 64%
    07:00 +8°C° 0 mm 1 mps 763 mmHg 64%
    08:00 +8°C° 0 mm 1 mps 763 mmHg 64%
    09:00 +10°C° 0 mm 1 mps 764 mmHg 56%
    10:00 +12°C° 0 mm 1 mps 764 mmHg 49%
    11:00 +14°C° 0 mm 1 mps 764 mmHg 42%
    12:00 +15°C° 0 mm 1 mps 763 mmHg 39%
    13:00 +18°C° 0 mm 1 mps 763 mmHg 37%
    14:00 +19°C° 0 mm 1 mps 762 mmHg 34%
    15:00 +19°C° 0 mm 1 mps 761 mmHg 37%
    16:00 +19°C° 0 mm 1 mps 761 mmHg 39%
    17:00 +19°C° 0 mm 1 mps 761 mmHg 41%
    18:00 +18°C° 0 mm 1 mps 761 mmHg 45%
    19:00 +16°C° 0 mm 1 mps 762 mmHg 49%
    20:00 +15°C° 0 mm 1 mps 762 mmHg 53%
    21:00 +15°C° 0 mm 1 mps 762 mmHg 54%
    22:00 +14°C° 0 mm 1 mps 763 mmHg 55%
    23:00 +14°C° 0 mm 1 mps 763 mmHg 55%

    25 January, Friday

    Time Temperature Precipitation Wind Pressure Humidity
    00:00 +14°C° 0 mm 1 mps 763 mmHg 56%
    01:00 +14°C° 0 mm 1 mps 763 mmHg 57%
    02:00 +13°C° 0 mm 1 mps 763 mmHg 57%
    03:00 +13°C° 0 mm 1 mps 763 mmHg 58%
    04:00 +13°C° 0 mm 1 mps 763 mmHg 59%
    05:00 +13°C° 0 mm 1 mps 763 mmHg 59%
    06:00 +13°C° 0 mm 1 mps 764 mmHg 61%
    07:00 +13°C° 0 mm 1 mps 765 mmHg 63%
    08:00 +12°C° 0 mm 1 mps 765 mmHg 64%
    09:00 +14°C° 0 mm 2 mps 766 mmHg 60%
    10:00 +14°C° 0 mm 3 mps 766 mmHg 55%
    11:00 +17°C° 0 mm 3 mps 767 mmHg 50%
    12:00 +17°C° 0 mm 3 mps 766 mmHg 49%
    13:00 +18°C° 0 mm 4 mps 766 mmHg 48%
    14:00 +19°C° 0 mm 4 mps 766 mmHg 47%
    15:00 +18°C° 0 mm 4 mps 766 mmHg 48%
    16:00 +18°C° 0 mm 4 mps 766 mmHg 50%
    17:00 +17°C° 0 mm 4 mps 766 mmHg 52%
    18:00 +15°C° 0 mm 4 mps 767 mmHg 53%
    19:00 +14°C° 0 mm 4 mps 767 mmHg 53%
    20:00 +13°C° 0 mm 4 mps 768 mmHg 54%
    21:00 +13°C° 0 mm 4 mps 768 mmHg 55%
    22:00 +12°C° 0 mm 3 mps 769 mmHg 57%
    23:00 +12°C° 0 mm 3 mps 769 mmHg 58%

    26 January, Saturday

    Time Temperature Precipitation Wind Pressure Humidity
    00:00 +11°C° 0 mm 3 mps 769 mmHg 60%
    01:00 +11°C° 0 mm 3 mps 769 mmHg 62%
    02:00 +10°C° 0 mm 3 mps 769 mmHg 64%
    03:00 +10°C° 0 mm 3 mps 769 mmHg 66%
    04:00 +9°C° 0 mm 3 mps 769 mmHg 68%
    05:00 +9°C° 0 mm 3 mps 769 mmHg 69%
    06:00 +8°C° 0 mm 3 mps 770 mmHg 71%
    07:00 +8°C° 0 mm 3 mps 770 mmHg 73%
    08:00 +8°C° 0 mm 3 mps 771 mmHg 75%
    09:00 +9°C° 0 mm 3 mps 771 mmHg 72%
    10:00 +10°C° 0 mm 3 mps 771 mmHg 68%
    11:00 +11°C° 0 mm 3 mps 772 mmHg 64%
    12:00 +12°C° 0 mm 3 mps 771 mmHg 60%
    13:00 +14°C° 0 mm 2 mps 770 mmHg 56%
    14:00 +16°C° 0 mm 2 mps 769 mmHg 51%
    15:00 +16°C° 0 mm 2 mps 769 mmHg 51%
    16:00 +16°C° 0 mm 2 mps 769 mmHg 51%
    17:00 +16°C° 0 mm 2 mps 768 mmHg 50%
    18:00 +15°C° 0 mm 2 mps 769 mmHg 55%
    19:00 +14°C° 0 mm 2 mps 769 mmHg 60%
    20:00 +13°C° 0 mm 2 mps 769 mmHg 65%
    21:00 +12°C° 0 mm 2 mps 769 mmHg 67%
    22:00 +12°C° 0 mm 1 mps 770 mmHg 69%
    23:00 +11°C° 0 mm 1 mps 770 mmHg 71%

    27 January, Sunday

    Time Temperature Precipitation Wind Pressure Humidity
    00:00 +11°C° 0 mm 1 mps 769 mmHg 71%
    01:00 +10°C° 0 mm 1 mps 769 mmHg 71%
    02:00 +10°C° 0 mm 1 mps 769 mmHg 71%
    03:00 +10°C° 0 mm 1 mps 769 mmHg 72%
    04:00 +9°C° 0 mm 1 mps 769 mmHg 72%
    05:00 +9°C° 0 mm 1 mps 768 mmHg 73%
    06:00 +9°C° 0 mm 1 mps 769 mmHg 72%
    07:00 +9°C° 0 mm 1 mps 769 mmHg 72%
    08:00 +8°C° 0 mm 0 mps 769 mmHg 72%
    09:00 +10°C° 0 mm 1 mps 769 mmHg 63%
    10:00 +12°C° 0 mm 1 mps 769 mmHg 54%
    11:00 +14°C° 0 mm 1 mps 769 mmHg 46%
    12:00 +15°C° 0 mm 1 mps 769 mmHg 43%
    13:00 +16°C° 0 mm 1 mps 768 mmHg 40%
    14:00 +18°C° 0 mm 1 mps 767 mmHg 38%
    15:00 +18°C° 0 mm 1 mps 766 mmHg 39%
    16:00 +18°C° 0 mm 1 mps 766 mmHg 39%
    17:00 +18°C° 0 mm 1 mps 765 mmHg 40%
    18:00 +16°C° 0 mm 1 mps 766 mmHg 44%
    19:00 +15°C° 0 mm 1 mps 766 mmHg 49%
    20:00 +14°C° 0 mm 1 mps 766 mmHg 53%
    21:00 +14°C° 0 mm 1 mps 766 mmHg 56%
    22:00 +13°C° 0 mm 1 mps 767 mmHg 60%
    23:00 +13°C° 0 mm 2 mps 767 mmHg 63%
    Show more